[[{"header":{"parameterUnit":"m.s-1","parameterCategory":1,"la1":30.2991,"la2":30.254,"lo1":-89.0895,"lo2":-89.0444,"dy":0.0017,"dx":0.0017,"nx":28,"ny":28,"refTime":"2026-02-14T09:00:00:Z","depth":0,"parameterNumber":2,"parameterNumberName":"U-component_of_WINDS"},"data":[0,0,0,0,0,0,0,0,0,0,0,0,0,0,0,0,0,0,0,0,0,0,0,0,0,0,0,0,0,0,0,0,0,0,0,0,0,0,0,0,0,0,0,0,0,0,0,0,0,0,0,0,0,0,0,0,0,0,1.9612,1.9612,0,1.9626,1.9626,1.9626,1.9598,1.9597,1.9596,1.9596,1.9608,1.9609,1.961,0,0,0,0,0,0,0,0,0,0,0,0,0,1.9562,1.9563,1.9612,1.9613,1.9613,1.9626,1.9626,1.9626,1.9598,1.9597,1.9596,1.9595,1.9608,1.9609,1.961,0,0,0,0,0,0,0,0,0,0,0,0,0,1.958,1.9563,1.9612,1.96,1.9599,1.9626,1.9626,1.9626,1.9599,1.9597,1.9596,1.9595,1.9607,1.9609,1.9611,1.9649,0,0,1.9616,1.9617,0,0,0,0,0,0,0,0,1.9579,1.9582,1.9602,1.9601,1.96,1.9609,1.9613,1.9634,1.9599,1.9599,1.9596,1.9594,1.9609,1.9611,1.9616,1.9649,1.965,1.9616,1.9617,1.9618,1.9619,0,0,0,0,0,0,0,1.9578,1.9582,1.9618,1.9602,1.9601,1.9594,1.9595,1.9617,1.9612,1.9599,1.9597,1.9599,1.9609,1.9615,1.9616,1.965,1.9616,1.9618,1.9619,1.9619,1.9717,1.9718,0,0,0,0,0,0,1.9579,1.9581,1.9617,1.9618,1.9586,1.9596,1.9598,1.9608,1.9611,1.9611,1.96,1.9598,1.9612,1.9614,1.9617,1.9663,1.9618,1.962,1.9621,1.9715,1.9717,1.9719,0,0,0,0,0,0,1.9578,1.9582,1.9617,1.9599,1.9603,1.9599,1.961,1.9609,1.9615,1.9612,1.9611,1.9607,1.9611,1.9614,1.9642,1.9663,1.962,1.9622,1.9713,1.9716,1.9718,1.9754,0,0,0,0,0,0,1.9576,1.9582,1.9596,1.9599,1.9604,1.9641,1.9611,1.961,1.9618,1.9615,1.9619,1.9618,1.9611,1.9639,1.9643,1.9664,1.9623,1.9712,1.9715,1.9717,1.9751,1.9757,1.9763,0,0,0,0,0,1.9575,1.9605,1.9597,1.9602,1.9622,1.9643,1.9645,1.9636,1.962,1.9634,1.9633,1.9618,1.966,1.9642,1.9647,1.9668,1.971,1.9714,1.9717,1.9748,1.9756,1.9763,0,0,0,0,0,0,1.9603,1.9605,1.9596,1.9629,1.9636,1.9638,1.9656,1.9645,1.9656,1.9652,1.9641,1.9642,1.9672,1.9673,1.9653,1.9706,1.9682,1.9687,1.9704,1.9712,1.9718,1.9717,1.9625,0,0,0,0,0,1.9613,1.9631,1.9631,1.966,1.9664,1.966,1.9668,1.9661,1.9668,1.967,1.9671,1.9678,1.9692,1.9702,1.9715,1.9751,1.9752,1.9769,1.9775,1.978,1.9783,1.9804,1.9811,1.973,1.973,1.973,0,0,1.9634,1.9638,1.9649,1.9666,1.967,1.9689,1.9662,1.9682,1.9695,1.9673,1.9699,1.97,1.9707,1.9739,1.9753,1.9741,1.9806,1.9784,1.9788,1.9789,1.9808,1.9816,1.9823,1.9732,1.9732,1.9732,0,0,1.9682,1.9686,1.9711,1.9717,1.9725,1.9722,1.9728,1.9732,1.9732,1.9759,1.9743,1.9759,1.9784,1.979,1.9796,1.9849,1.9836,1.9854,1.9884,1.9904,1.9911,1.9916,1.9936,1.9943,1.9858,1.9858,1.9858,0,1.9707,1.9734,1.9725,1.9747,1.9755,1.9737,1.9763,1.9769,1.978,1.9786,1.9773,1.9806,1.9809,1.9843,1.9856,1.9861,1.9868,1.9853,1.991,1.9916,1.9921,1.9939,1.9947,1.986,1.986,1.9859,1.9859,0,1.9764,1.9783,1.9803,1.9816,1.9826,1.985,1.9845,1.9857,1.9849,1.9848,1.9876,1.988,1.9894,1.9902,1.9894,1.9935,1.9927,1.9912,1.9888,1.9931,1.9948,1.9955,1.9863,1.9862,1.9861,1.9861,0,0,1.9828,1.9839,1.9846,1.9852,1.9861,1.9875,1.9898,1.9914,1.9924,1.9933,1.9953,1.9976,1.9963,1.997,1.9963,1.9981,2.0023,1.9964,1.9964,1.9975,2.007,2.0081,2.0089,2.0015,2.0016,2.0017,2.007,0,1.9876,1.9917,1.9911,1.995,1.9968,1.9953,1.9973,1.9981,1.9981,1.9996,1.9995,2.0012,1.9993,1.9998,2.0015,2.0015,2.0042,2.0011,2.0033,2.0034,2.0032,2.0098,2.011,2.0159,2.0076,2.0077,2.0078,0,1.9937,1.995,1.9991,1.9999,2.0006,2.0024,2.0039,2.0054,2.0062,2.0061,2.0071,2.0061,2.0085,2.0061,2.0093,2.0072,2.0081,2.0083,2.0084,2.0086,2.0058,2.0102,2.0174,2.0181,2.0088,2.0087,2.0087,0,1.998,2.0008,2.0037,2.0043,2.0052,2.0066,2.007,2.0078,2.0088,2.01,2.0107,2.0122,2.013,2.0142,2.0137,2.0119,2.0171,2.0146,2.0171,2.0171,2.0182,2.0181,2.0256,2.0188,2.0187,2.0187,2.0187,0,2.0034,2.006,2.0057,2.0074,2.0103,2.0097,2.0126,2.0128,2.0136,2.0153,2.0141,2.0158,2.015,2.0167,2.0163,2.0192,2.0195,2.0195,2.0194,2.0196,2.0196,2.0202,2.0198,2.0189,2.0189,2.0188,2.0188,0,2.0087,2.0086,2.0116,2.0124,2.0126,2.0147,2.0153,2.017,2.017,2.0193,2.0198,2.0198,2.0217,2.0213,2.0234,2.0232,2.0267,2.0262,2.0265,2.0263,2.0289,2.0286,2.037,2.0381,2.0305,2.0306,2.0306,0,2.0121,2.0141,2.0151,2.0163,2.0169,2.0188,2.0199,2.0193,2.0205,2.0218,2.0233,2.0252,2.0266,2.0298,2.0299,2.0315,2.031,2.0339,2.0312,2.0315,2.0311,2.031,2.0312,2.0343,2.0344,2.0345,2.0346,0,2.0182,2.0181,2.0198,2.0215,2.0229,2.0242,2.0253,2.0263,2.0259,2.0273,2.0294,2.0305,2.0328,2.0346,2.0362,2.0366,2.0356,2.0354,2.0361,2.0363,2.0364,2.0365,2.0279,2.0352,2.0351,2.0351,2.035,2.035,2.0227,2.0245,2.0255,2.0275,2.0283,2.0295,2.0312,2.0315,2.0332,2.035,2.0346,2.0369,2.0379,2.0399,2.0405,2.0423,2.0413,2.0422,2.0425,2.0427,2.0431,2.0362,2.0426,2.0426,2.0426,2.0426,2.0426,0,2.0288,2.0295,2.0313,2.033,2.0346,2.0336,2.0349,2.0362,2.0383,2.0394,2.0409,2.0433,2.0451,2.0455,2.0473,2.0487,2.0482,2.0491,2.049,2.0492,2.0439,2.0431,2.0495,2.0495,2.0495,2.0495,2.0495,2.0495,2.0321,2.0351,2.0352,2.0386,2.0393,2.0416,2.0425,2.0435,2.0444,2.0472,2.0488,2.049,2.0499,2.0517,2.0534,2.0535,2.0542,2.0553,2.0552,2.0502,2.0495,2.0489,2.0482,2.0555,2.0555,2.0603,2.0604,2.0604]},{"header":{"parameterUnit":"m.s-1","parameterCategory":1,"la1":30.2991,"la2":30.254,"lo1":-89.0895,"lo2":-89.0444,"dy":0.0017,"dx":0.0017,"nx":28,"ny":28,"refTime":"2026-02-14T09:00:00:Z","depth":0,"parameterNumber":3,"parameterNumberName":"V-component_of_WINDS"},"data":[0,0,0,0,0,0,0,0,0,0,0,0,0,0,0,0,0,0,0,0,0,0,0,0,0,0,0,0,0,0,0,0,0,0,0,0,0,0,0,0,0,0,0,0,0,0,0,0,0,0,0,0,0,0,0,0,0,0,-5.5631,-5.5632,0,-5.5723,-5.5724,-5.5725,-5.569,-5.5688,-5.5686,-5.5684,-5.5774,-5.5778,-5.5782,0,0,0,0,0,0,0,0,0,0,0,0,0,-5.5424,-5.5428,-5.5631,-5.5632,-5.5633,-5.5722,-5.5724,-5.5725,-5.569,-5.5688,-5.5685,-5.5683,-5.5772,-5.5777,-5.5783,0,0,0,0,0,0,0,0,0,0,0,0,0,-5.5514,-5.5429,-5.5631,-5.5627,-5.5627,-5.5722,-5.5724,-5.5725,-5.5691,-5.5688,-5.5685,-5.5682,-5.5771,-5.5777,-5.5783,-5.5886,0,0,-5.5803,-5.5806,0,0,0,0,0,0,0,0,-5.5509,-5.5522,-5.5626,-5.5627,-5.5628,-5.5692,-5.5684,-5.5779,-5.5692,-5.5667,-5.5684,-5.568,-5.5749,-5.5757,-5.5781,-5.589,-5.5894,-5.5804,-5.5808,-5.581,-5.5812,0,0,0,0,0,0,0,-5.5503,-5.5518,-5.5667,-5.5628,-5.5629,-5.562,-5.5629,-5.5701,-5.5724,-5.5669,-5.5666,-5.5678,-5.5748,-5.5774,-5.5782,-5.5895,-5.5803,-5.5809,-5.5813,-5.5816,-5.6096,-5.6099,0,0,0,0,0,0,-5.5497,-5.5513,-5.5664,-5.567,-5.556,-5.5626,-5.5637,-5.5674,-5.5723,-5.5728,-5.568,-5.5676,-5.5765,-5.5775,-5.5785,-5.5911,-5.581,-5.5816,-5.582,-5.6092,-5.6097,-5.6101,0,0,0,0,0,0,-5.5493,-5.5511,-5.566,-5.5591,-5.5609,-5.5633,-5.5676,-5.5678,-5.5704,-5.5732,-5.5736,-5.5703,-5.5763,-5.5776,-5.5862,-5.5913,-5.5819,-5.5825,-5.6088,-5.6094,-5.6099,-5.6161,0,0,0,0,0,0,-5.5487,-5.5509,-5.5549,-5.5592,-5.5613,-5.5736,-5.5679,-5.5682,-5.5716,-5.5711,-5.5754,-5.5758,-5.5761,-5.5853,-5.5869,-5.592,-5.583,-5.6084,-5.6091,-5.6097,-5.6154,-5.6167,-5.6179,0,0,0,0,0,-5.548,-5.5561,-5.5551,-5.557,-5.5663,-5.5739,-5.5751,-5.5754,-5.572,-5.576,-5.5778,-5.5757,-5.5905,-5.5862,-5.5879,-5.5934,-5.6081,-5.6089,-5.6096,-5.6149,-5.6165,-5.6179,0,0,0,0,0,0,-5.5521,-5.5567,-5.5556,-5.5654,-5.5694,-5.5733,-5.5783,-5.5771,-5.5819,-5.5812,-5.5813,-5.5823,-5.5912,-5.5931,-5.5882,-5.6037,-5.5988,-5.5999,-5.6021,-5.6037,-5.6049,-5.6042,-5.5836,0,0,0,0,0,-5.5543,-5.5602,-5.5637,-5.5721,-5.5741,-5.5759,-5.5792,-5.5792,-5.5831,-5.5847,-5.5872,-5.5911,-5.5966,-5.6002,-5.6055,-5.6157,-5.6166,-5.6203,-5.6216,-5.6226,-5.6236,-5.6293,-5.6311,-5.6127,-5.6127,-5.6127,0,0,-5.5586,-5.5618,-5.5655,-5.573,-5.576,-5.5821,-5.5773,-5.5838,-5.5884,-5.5857,-5.594,-5.596,-5.6003,-5.6098,-5.6141,-5.6117,-5.6289,-5.6236,-5.6244,-5.6248,-5.6303,-5.6321,-5.6336,-5.6132,-5.6131,-5.613,0,0,-5.5696,-5.5726,-5.58,-5.5832,-5.5879,-5.5891,-5.5909,-5.5952,-5.5964,-5.6048,-5.603,-5.6083,-5.6178,-5.6211,-5.6239,-5.6365,-5.6348,-5.6382,-5.6446,-5.6502,-5.6517,-5.653,-5.6576,-5.6592,-5.6392,-5.6392,-5.6392,0,-5.5744,-5.5835,-5.5839,-5.5907,-5.5941,-5.5922,-5.5997,-5.6027,-5.6089,-5.6113,-5.6085,-5.6206,-5.6233,-5.6337,-5.6368,-5.6391,-5.6412,-5.6377,-5.6515,-5.6528,-5.654,-5.6584,-5.6601,-5.6396,-5.6396,-5.6395,-5.6395,0,-5.5892,-5.5956,-5.601,-5.6073,-5.6113,-5.6184,-5.6198,-5.6238,-5.6234,-5.6249,-5.6336,-5.6369,-5.6429,-5.6453,-5.6449,-5.6557,-5.654,-5.6514,-5.6464,-5.6561,-5.6603,-5.6619,-5.6402,-5.6401,-5.6399,-5.6398,0,0,-5.603,-5.6096,-5.6115,-5.6145,-5.6197,-5.6246,-5.6316,-5.6377,-5.6412,-5.6455,-5.6515,-5.6597,-5.6574,-5.6607,-5.6607,-5.6656,-5.6755,-5.6624,-5.6625,-5.6648,-5.6878,-5.6898,-5.6917,-5.6744,-5.6748,-5.675,-5.6875,0,-5.6145,-5.6271,-5.6277,-5.6391,-5.6451,-5.6435,-5.6497,-5.6536,-5.6552,-5.6605,-5.6622,-5.6681,-5.6645,-5.6665,-5.6713,-5.6733,-5.6802,-5.6724,-5.68,-5.6803,-5.679,-5.6939,-5.696,-5.7075,-5.6891,-5.6893,-5.6895,0,-5.6296,-5.6347,-5.6468,-5.6514,-5.6539,-5.6595,-5.6652,-5.6703,-5.6746,-5.6755,-5.6793,-5.6787,-5.6859,-5.6808,-5.6908,-5.6855,-5.6887,-5.6901,-5.6906,-5.6913,-5.6855,-5.6951,-5.7112,-5.713,-5.6921,-5.6919,-5.6917,0,-5.6386,-5.6485,-5.657,-5.6596,-5.6651,-5.6691,-5.6715,-5.6756,-5.6793,-5.6843,-5.6867,-5.6923,-5.6955,-5.6999,-5.7008,-5.6969,-5.7109,-5.7057,-5.7118,-5.7118,-5.7148,-5.7146,-5.7317,-5.7167,-5.7167,-5.7167,-5.7166,0,-5.6514,-5.6589,-5.6612,-5.6665,-5.6748,-5.6755,-5.6838,-5.6859,-5.6897,-5.6953,-5.6942,-5.6995,-5.7003,-5.7059,-5.7066,-5.7149,-5.7162,-5.7171,-5.7173,-5.7173,-5.7172,-5.7194,-5.7186,-5.7171,-5.717,-5.7169,-5.7168,0,-5.6629,-5.6647,-5.674,-5.6786,-5.6799,-5.6859,-5.6898,-5.6949,-5.6965,-5.7037,-5.7054,-5.7079,-5.7143,-5.7157,-5.7232,-5.7238,-5.7337,-5.7329,-5.7323,-5.7322,-5.7383,-5.7377,-5.7574,-5.7601,-5.7433,-5.7434,-5.7436,0,-5.671,-5.6767,-5.6821,-5.6859,-5.6886,-5.6947,-5.6986,-5.6995,-5.7035,-5.7091,-5.7135,-5.7199,-5.7251,-5.7355,-5.7379,-5.7438,-5.7432,-5.7497,-5.744,-5.744,-5.7434,-5.7431,-5.7438,-5.7508,-5.751,-5.7511,-5.7512,0,-5.6852,-5.6859,-5.6916,-5.6977,-5.7023,-5.7071,-5.7116,-5.7148,-5.7163,-5.7209,-5.7276,-5.7317,-5.7396,-5.746,-5.7519,-5.7543,-5.7531,-5.753,-5.7548,-5.7549,-5.7543,-5.7549,-5.7353,-5.7526,-5.7524,-5.7523,-5.7523,-5.7522,-5.6953,-5.7005,-5.7051,-5.7115,-5.7151,-5.7194,-5.7245,-5.7269,-5.7325,-5.7392,-5.7394,-5.7467,-5.7511,-5.759,-5.7618,-5.7676,-5.7655,-5.768,-5.7687,-5.7693,-5.7699,-5.7534,-5.7686,-5.7686,-5.7686,-5.7685,-5.7685,0,-5.7096,-5.7126,-5.7185,-5.725,-5.7301,-5.7287,-5.7337,-5.738,-5.7446,-5.7489,-5.7541,-5.7619,-5.7681,-5.7712,-5.7774,-5.7814,-5.781,-5.783,-5.7827,-5.7833,-5.7713,-5.7693,-5.7832,-5.7832,-5.7832,-5.7832,-5.7832,-5.7832,-5.7176,-5.7264,-5.7276,-5.7382,-5.741,-5.7484,-5.7514,-5.7555,-5.7589,-5.7678,-5.7731,-5.7751,-5.7789,-5.7854,-5.7911,-5.7918,-5.7942,-5.7965,-5.7969,-5.7856,-5.7842,-5.7827,-5.7808,-5.797,-5.797,-5.8085,-5.8086,-5.8087]}]]